Location: Ash Swamp
(41.5170°N, 74.6157°W)
Time: 02:39:35
(UTC+00:00)

In-Cosmos 22 Rocket - Pass Details

Date: 14 July 2020
Orbit: 791 x 887 km, 81.2° (Epoch: 14 August)

Event Time Altitude Azimuth Distance (km) Brightness Sun altitude
Exits shadow 02:10:50 13° 182° (S) 2,139 5.9 -15.2°
Maximum altitude 02:15:33 77° 97° (E) 818 4.0 -15.7°
Drops below altitude 10° 02:20:55 10° 13° (NNE) 2,385 7.1 -16.4°
Sets 02:23:19 0° 12° (NNE) 3,330 7.9 -16.7°
